Regional Weather Roundup
Issued by NWS

Home | Current Version | Previous Version | Text Only | Print | Product List | Glossary Off
Versions: 1 2 3 4 5 6 7 8 9 10 11 12 13 14 15 16 17 18 19 20 21 22 23 24 25 26 27

000
ASUS45 KSLC 242110
RWRUT

UTAH REGIONAL WEATHER ROUNDUP
NATIONAL WEATHER SERVICE SALT LAKE CITY UT
200 PM MST FRI FEB 24 2017

UTZ001>011-023>025-242200-

NORTHERN UTAH

CITY           SKY/WX    TMP DP  RH WIND       PRES   REMARKS
BRIGHAM CITY     N/A     29  16  58 NE3       30.10S
HILL AFB       CLOUDY    29  12  49 VRB7      30.07S WCI  22
LOGAN          CLOUDY    28  21  75 NW12      30.08R WCI  18
OGDEN          LGT SNOW  26  21  81 NW5       30.08R WCI  20
SALT LAKE CITY PTSUNNY   31  14  49 NW9       30.09F WCI  23
TOOELE VALLEY  CLOUDY    32  16  51 SW5       30.10R WCI  27
WENDOVER       MOSUNNY   34   3  27 NW9       30.08S WCI  26
HEBER CITY     CLOUDY    30  12  47 CALM      30.00S
WEST JORDAN    CLOUDY    31  19  59 NW3       30.09S

$$

UTZ011>015-024>027-242200-

CENTRAL/NORTHEAST UTAH

CITY           SKY/WX    TMP DP  RH WIND       PRES   REMARKS
PROVO AIRPORT  FLURRIES  26  18  71 SW3       30.11R
MOAB/CANYONLAN CLOUDY    36   8  31 SW8       29.98R WCI  30
DELTA          SUNNY     30  16  55 SE3       30.10S
PRICE          PTSUNNY   28  10  46 NW13      29.96S WCI  17
RICHFIELD      PTSUNNY   28  12  50 N7        30.08S WCI  21
ROOSEVELT      CLOUDY    28  21  74 E5        30.00S WCI  23
VERNAL         FLURRIES  30  18  60 N5        29.98S WCI  25

$$

UTZ013>016-019>022-027-242200-

SOUTHERN UTAH

CITY           SKY/WX    TMP DP  RH WIND       PRES   REMARKS
BRYCE CANYON   SUNNY     22   2  42 NW13      29.97F WCI  10
CEDAR CITY     SUNNY     34   7  32 NE5       30.02F WCI  30
MILFORD        SUNNY     31  12  45 E7        30.07F WCI  24
ST GEORGE      PTCLDY    45   9  23 W8        30.11F
HANKSVILLE     SUNNY     41  -2  16 W16G23    30.03S
KANAB          MOSUNNY   41   5  22 SW13G21   30.07F
BLANDING       MOSUNNY   34  12  39 W8        30.03R WCI  28

$$

REGIONAL REPORTS     COLORADO/ARIZONA

CITY           SKY/WX    TMP DP  RH WIND       PRES   REMARKS
CRAIG, CO      CLOUDY    23  12  62 W12       29.95R WCI  12
GRAND JUNCTION CLOUDY    33  13  43 NW12      29.96R WCI  24
RIFLE, CO      MIX PCPN  31  21  66 NW16G29   29.93R WCI  20
MONTROSE, CO   CLOUDY    28  14  55 W9        29.97R WCI  19
CORTEZ, CO     CLOUDY    30  20  66 NE7       29.96R WCI  23
COLORADO CITY    N/A     41   5  22 W9G20     30.09F
PAGE, AZ       SUNNY     43 -10  10 NW13G25   30.01F
GRAND CANYON   SUNNY     33   5  30 W13G20    30.02F WCI  24
KINGMAN, AZ    SUNNY     48 -17   6 VRB3      30.11F
FLAGSTAFF, AZ  SUNNY     36   3  25 W12G17    30.00F WCI  28

$$

REGIONAL REPORTS    NEVADA/IDAHO/WYOMING

CITY           SKY/WX    TMP DP  RH WIND       PRES   REMARKS
LAS VEGAS, NV  MOSUNNY   52   8  17 NW9       30.12F
ELY, NY        MOSUNNY   23   2  40 CALM      30.04F
ELKO, NV       PTSUNNY   30   7  37 VRB5      30.08F WCI  25
POCATELLO, ID  FLURRIES  23  16  74 W22       30.08R WCI   8
BURLEY, ID     MIX PCPN  30  15  53 W18G29    30.08R WCI  18
FORT BRIDGER,  CLOUDY    22  13  69 W18       29.96S WCI   8
EVANSTON, WY   CLOUDY    17  10  74 W20       29.94R WCI   1
ROCK SPRINGS,  CLOUDY    20  11  68 W18       29.91R WCI   5

$$




USA.gov is the U.S. government's official web portal to all federal, state and local government web resources and services.